Simultaneous Nadir Overpasses (SNOs) Predictions

Prediction of SNOs between GOES-17 and LANDSAT-8 Satellite Orbit:

Table of predicted SNOs for the next 14.0 days since TLE Epoch: 4/29/2023
Index Date Time (GOES-17) GOES-17 Lat,Lon LANDSAT-8 Lat,Lon Distance(km) Time Diff (sec)
1 04/30/2023 17:06:04 0.01,-104.75 -0.28,-103.29 165.34 80
2 05/01/2023 05:27:28 -0.01,-104.72 -0.82,-108.48 428.34 80
3 05/03/2023 05:15:16 -0.01,-104.72 -0.15,-105.54 92.02 80
4 05/05/2023 05:00:23 -0.02,-104.72 0.46,-102.58 244.39 80
5 05/05/2023 17:21:38 0.02,-104.75 0.64,-107.73 338.94 80
6 05/07/2023 17:09:25 0.01,-104.74 0.00,-104.78 3.70 80
7 05/09/2023 16:59:52 -0.01,-104.73 -0.65,-101.82 331.61 80
8 05/10/2023 05:21:15 0.01,-104.71 -0.49,-107.01 261.86 80
9 05/12/2023 05:06:22 0.02,-104.69 0.19,-104.06 73.39 80
